DECAYED

CZ-6A DEB, 54490 (Decayed)

Orbit data source: Space-Track

CZ-6A DEB, 54490 was space debris in SSO originally from a launch on Fri, 11 Nov 2022 UTC launched from the Taiyaun Space Center, China (TSC). Debris objects in space refer to the collection of defunct objects orbiting the Earth. Examples of debris include non-operational satellites, rocket bodies, and fragments generated from explosions, collisions, or faulty payload assembly.

Not visible in the next 10 days
Identifier
54490, 2022-151HS
Orbit
Decayed
Country
Flag of CNCN / PRC
Related business
Manufacturer
SAST
Mission
Decayed spacecraft
Bus & Motor
Unknown
Mass
Unknown
Launch date (UTC)
2022-11-11 (4 years ago)
Launch vehicle
Unknown
Launch site
Taiyaun Space Center, China (TSC)
Object type
Payload
Rocket body
Debris
Shape & HBR
Unknown shape, 0.1 m
Radar Cross Section
Medium (>0.1 m² and <1 m²)

Expand to show TLE details & history
Last TLE update: 3 months ago

TLE from 3 months ago
0 CZ-6A DEB
1 54490U 22151HS  26089.22775183  .05728142  55902-1  19569-1 0  9995
2 54490  98.6047 181.6816 0016750 307.5967  52.3783 15.94839735180084
Epoch: 2026-03-30T05:27Z
TLE epoch observation values (Epoch: 2026-03-30T05:27:57.758Z)
Latitude
-0.00002°
Longitude
-87.93137°
Altitude
285.107 km
Speed
7.74 km/s
True Right ascension
12h 06m 43s
True Declination
0° 00' 00"
Sunlit
Object was in full shadow at epoch
Visualization orbit readout
Latitude
Unknown
Longitude
Unknown
Altitude
Unknown
Speed
Unknown
Apparent Right ascension
Unknown
Apparent Declination
Unknown
Sunlit
N/A
Visualization observer readout
Local Sidereal Time
21:34:01
Azimuth
Unknown
Elevation
Unknown
Doppler factor
Unknown
Orbital elements
Apogee altitude
296.847 km
Perigee altitude
274.523 km
Semi-major axis
6,663.822 km
Eccentricity
0.00168
Inclination
98.6047°
RAAN
181.6816°
Arg. of periapsis
307.5967°
True anomaly
52.53052°
Mean anomaly
52.3783°
Eccentric anomaly
52.45439°
Mean motion
3.98986 °/min
Orbital period
90.23 mins
BSTAR
0.019569
Loading maneuver chart data...
Computing Atmospheric mass density...
Loading historical data...
Loading historical data...
Loading historical data...
Loading historical data...
Loading historical data...
Loading historical data...
Loading historical data...

Documentation

Showing up to 5 results
|